Regional Weather Roundup
Issued by NWS New Orleans/Baton Rouge, LA

Home | Current Version | Previous Version | Text Only | Print | Product List | Glossary On
Versions: 1 2 3 4 5 6 7 8 9 10 11 12 13 14 15 16 17 18 19 20 21 22 23 24 25 26 27 28 29 30 31 32 33 34 35 36 37 38 39 40 41 42 43 44 45 46 47 48 49 50
000
ASUS44 KLIX 280111
RWRLIX
NEW ORLEANS REGIONAL WEATHER ROUNDUP
NATIONAL WEATHER SERVICE NEW ORLEANS LA
800 PM CDT MON JUL 27 2015

NOTE: "FAIR" INDICATES FEW OR NO CLOUDS BELOW 12,000 FEET WITH NO
      SIGNIFICANT WEATHER AND/OR OBSTRUCTIONS TO VISIBILITY.
      SKY/WX - SKY CONDITION AND SIGNIFICANT WEATHER.
      TMP - AIR TEMPERATURE.     DP    - DEWPOINT TEMPERATURE.
      RH  - RELATIVE HUMIDITY.   PRES  - PRESSURE.
      HI  - HEAT INDEX.          WCI   - WIND CHILL INDEX.

*  THESE STATIONS ARE NOT NWS OR FAA STATIONS AND ARE NOT UNDER
   NWS QUALITY CONTROL.

LAZ038-040-048-061>063-065>067-069-280200-
SOUTHEAST LOUISIANA

CITY           SKY/WX    TMP DP  RH WIND       PRES   REMARKS
N.O. AUDUBON     N/A     88  75  66 MISG        N/A  HX  97
N.O. INTL ARPT MOCLDY    87  72  60 S8        29.94R
N.O. LAKEFRONT CLEAR     91  71  51 S9        29.94R HX  97
N.O. DOWNTOWN*   N/A     90  70  51 SE5       29.95R HX  95
RESERVE*         N/A     87  74  63 S8        29.94R HX  95
SLIDELL        CLEAR     86  74  67 S3        29.93S
BATON ROUGE    PTCLDY    85  72  65 MISG      29.93R
BOOTHVILLE     PTCLDY    86  74  67 SE3       29.95R
BELLE CHASSE   MOCLDY    83  74  74 S3        29.94R
BOGALUSA*        N/A     90  70  52 S6        29.95R HX  95
GALLIANO*      NOT AVBL
NEW ROADS*       N/A    N/A N/A N/A S9        29.93R
GONZALES*        N/A     85  75  72 SW3       29.93R
HAMMOND*       CLEAR     86  68  54 CALM      29.95S
HOUMA*         PTCLDY    83  74  75 S3        29.94S
PORT FOURCHON* CLEAR     88  73  62 S6        29.95S HX  96

$$

MSZ070-080>082-280200-
SOUTHERN MISSISSIPPI

CITY           SKY/WX    TMP DP  RH WIND       PRES   REMARKS
MCCOMB         CLEAR     87  74  64 CALM      29.94S HX  95
GULFPORT       CLEAR     85  72  65 CALM      29.93S
BILOXI         CLEAR     84  73  69 SW3       29.93S
PASCAGOULA     CLEAR     83  75  77 CALM      29.93S
STENNIS ARPT*  CLEAR     82  72  69 S5        29.94R

$$

COASTAL OBSERVATIONS
LAKE AND NEARSHORE STATIONS

STATION/POSITION TIME  TEMP    WIND        PRES    WAVE
                       AIR SEA DIR/SP/G            HT/PER
                 (UTC) (F)     (DEG/KT/KT) (MB)    (FT/S)
PASCAGOULA       0000   88     240/  7/  8 1013.4
WAVELAND YACHT   0000   88 89  220/  4/  6 1014.1
GRAND ISLE       0000   88 90  170/  5/  6 1014.1
SOUTHWEST PASS   0000   88 87  140/  8/ 12 1014.3
NEW CANAL        0000   91 90  140/  2/  6 1012.7
SHELL BEACH      0000   87 90  170/  7/  9 1013.3

OFFSHORE STATIONS

STATION/POSITION TIME  TEMP    WIND        PRES    WAVE
                       AIR SEA DIR/SP/G            HT/PER
                 (UTC) (F)     (DEG/KT/KT) (MB)    (FT/S)
64 S DAUPHIN ISL 0050   86 89   CALM  /  2 1013.9    1/ 4

$$




USA.gov is the U.S. government's official web portal to all federal, state and local government web resources and services.